ASA1354 KSEA-KPDX

Flight info

Callsign ASA1354
Flight time 0h 32m
Altitude 19000
Route OZWLD1 OZWLD BUWZO KRATR3
Aircraft B738/M-SDE2E3FGHIRWXY/LB1

Departure

Time 2026-05-04 03:36
Airport Seattle–Tacoma International Airport (KSEA)

Arrival

Time 2026-05-04 04:08
Airport Portland International Airport (KPDX)
Time Latitude Longitude Altitude Speed Heading
2026-05-04 03:13 47.44172 -122.30211 393 ft 0 kts 39°
2026-05-04 03:24 47.44171 -122.30212 393 ft 1 kts 39°
2026-05-04 03:24 47.44158 -122.30227 393 ft 3 kts 31°
2026-05-04 03:24 47.44140 -122.30240 393 ft 3 kts 17°
2026-05-04 03:24 47.44121 -122.30246 393 ft 3 kts
2026-05-04 03:25 47.44101 -122.30244 393 ft 3 kts 351°
2026-05-04 03:25 47.44081 -122.30240 393 ft 3 kts 353°
2026-05-04 03:25 47.44061 -122.30237 393 ft 3 kts
2026-05-04 03:25 47.44041 -122.30241 393 ft 3 kts 23°
2026-05-04 03:26 47.44027 -122.30254 393 ft 2 kts 53°
2026-05-04 03:26 47.44025 -122.30258 393 ft 0 kts 56°
2026-05-04 03:29 47.44047 -122.30178 393 ft 11 kts 79°
2026-05-04 03:30 47.44022 -122.30073 393 ft 11 kts 121°
2026-05-04 03:30 47.43965 -122.30003 393 ft 11 kts 152°
2026-05-04 03:30 47.43910 -122.29984 393 ft 0 kts 154°
2026-05-04 03:30 47.43917 -122.29959 393 ft 1 kts 154°
2026-05-04 03:31 47.43902 -122.29950 501 ft 0 kts 159°
2026-05-04 03:31 47.43857 -122.29956 393 ft 0 kts 210°
2026-05-04 03:31 47.43806 -122.29987 393 ft 16 kts 201°
2026-05-04 03:31 47.43747 -122.30114 393 ft 16 kts 265°
2026-05-04 03:32 47.43729 -122.30267 393 ft 15 kts 254°
2026-05-04 03:32 47.43717 -122.30417 393 ft 14 kts 269°
2026-05-04 03:32 47.43696 -122.30555 393 ft 14 kts 243°
2026-05-04 03:32 47.43638 -122.30598 393 ft 0 kts 186°
2026-05-04 03:33 47.43601 -122.30585 393 ft 7 kts 163°
2026-05-04 03:33 47.43521 -122.30555 393 ft 13 kts 178°
2026-05-04 03:33 47.43410 -122.30563 393 ft 17 kts 182°
2026-05-04 03:33 47.43302 -122.30566 393 ft 10 kts 177°
2026-05-04 03:34 47.43202 -122.30600 392 ft 17 kts 224°
2026-05-04 03:34 47.43184 -122.30631 392 ft 0 kts 244°
2026-05-04 03:34 47.43182 -122.30639 393 ft 6 kts 249°
2026-05-04 03:35 47.43194 -122.30777 392 ft 16 kts 314°
2026-05-04 03:35 47.43336 -122.30808 393 ft 47 kts
2026-05-04 03:35 47.43985 -122.30799 393 ft 136 kts 359°
2026-05-04 03:35 47.45118 -122.30843 787 ft 179 kts 358°
2026-05-04 03:36 47.46448 -122.30912 1687 ft 193 kts 358°
2026-05-04 03:36 47.47732 -122.30980 3010 ft 180 kts 358°
2026-05-04 03:36 47.49039 -122.31035 3720 ft 200 kts 359°
2026-05-04 03:36 47.50531 -122.31085 3948 ft 228 kts 359°
2026-05-04 03:37 47.52157 -122.31130 4539 ft 238 kts 359°
2026-05-04 03:37 47.53810 -122.31171 5234 ft 242 kts 359°
2026-05-04 03:37 47.55496 -122.31210 6001 ft 243 kts 359°
2026-05-04 03:37 47.57191 -122.31245 6716 ft 245 kts 359°
2026-05-04 03:38 47.58911 -122.31278 7375 ft 249 kts 359°
2026-05-04 03:38 47.60650 -122.31440 8018 ft 253 kts 345°
2026-05-04 03:38 47.62119 -122.32845 8663 ft 258 kts 309°
2026-05-04 03:38 47.62755 -122.35318 9342 ft 264 kts 274°
2026-05-04 03:39 47.62319 -122.37963 9973 ft 270 kts 242°
2026-05-04 03:39 47.61251 -122.40275 10580 ft 275 kts 229°
2026-05-04 03:39 47.59742 -122.42036 11148 ft 280 kts 207°
2026-05-04 03:39 47.57891 -122.42795 11737 ft 283 kts 183°
2026-05-04 03:40 47.55915 -122.42673 12343 ft 288 kts 174°
2026-05-04 03:40 47.53857 -122.42277 12574 ft 311 kts 171°
2026-05-04 03:40 47.51619 -122.41781 12778 ft 338 kts 171°
2026-05-04 03:40 47.49209 -122.41248 13011 ft 363 kts 171°
2026-05-04 03:41 47.46651 -122.40705 13411 ft 378 kts 172°
2026-05-04 03:41 47.44914 -122.40348 13841 ft 383 kts 172°
2026-05-04 03:41 47.42265 -122.39820 14559 ft 386 kts 172°
2026-05-04 03:41 47.38687 -122.39126 15531 ft 390 kts 172°
2026-05-04 03:42 47.36017 -122.38617 15912 ft 394 kts 172°
2026-05-04 03:42 47.33275 -122.38097 16020 ft 405 kts 172°
2026-05-04 03:42 47.30434 -122.37561 16013 ft 416 kts 172°
2026-05-04 03:42 47.27557 -122.37019 16005 ft 415 kts 172°
2026-05-04 03:43 47.24705 -122.36483 15996 ft 412 kts 172°
2026-05-04 03:43 47.21864 -122.35948 15999 ft 411 kts 172°
2026-05-04 03:43 47.19988 -122.35596 16001 ft 410 kts 172°
2026-05-04 03:43 47.17139 -122.35060 16036 ft 419 kts 172°
2026-05-04 03:44 47.14198 -122.34508 16311 ft 431 kts 172°
2026-05-04 03:44 47.11209 -122.33947 16850 ft 435 kts 172°
2026-05-04 03:44 47.08213 -122.33386 17624 ft 433 kts 172°
2026-05-04 03:44 47.05237 -122.32830 18419 ft 429 kts 172°
2026-05-04 03:45 47.02268 -122.32276 18831 ft 431 kts 172°
2026-05-04 03:45 46.99289 -122.31719 18997 ft 431 kts 172°
2026-05-04 03:45 46.96328 -122.31167 19010 ft 429 kts 172°
2026-05-04 03:45 46.93359 -122.30742 19017 ft 430 kts 176°
2026-05-04 03:46 46.90400 -122.30655 19021 ft 431 kts 179°
2026-05-04 03:46 46.87402 -122.30711 19021 ft 431 kts 180°
2026-05-04 03:46 46.84399 -122.30801 19024 ft 432 kts 180°
2026-05-04 03:46 46.81395 -122.30877 19013 ft 432 kts 180°
2026-05-04 03:47 46.78385 -122.30928 19014 ft 433 kts 180°
2026-05-04 03:47 46.75372 -122.30955 19015 ft 432 kts 179°
2026-05-04 03:47 46.72365 -122.30965 19028 ft 432 kts 179°
2026-05-04 03:47 46.69369 -122.30968 19023 ft 428 kts 179°
2026-05-04 03:48 46.66449 -122.30968 19001 ft 412 kts 179°
2026-05-04 03:48 46.63674 -122.30967 18999 ft 396 kts 179°
2026-05-04 03:48 46.60970 -122.30966 18995 ft 381 kts 179°
2026-05-04 03:48 46.58364 -122.30966 19000 ft 368 kts 179°
2026-05-04 03:49 46.55855 -122.30965 19003 ft 353 kts 179°
2026-05-04 03:49 46.53447 -122.30965 19003 ft 340 kts 179°
2026-05-04 03:49 46.51130 -122.30965 18986 ft 327 kts 179°
2026-05-04 03:49 46.48886 -122.30964 18815 ft 321 kts 179°
2026-05-04 03:50 46.46648 -122.30963 18412 ft 324 kts 179°
2026-05-04 03:50 46.44408 -122.30961 17953 ft 328 kts 179°
2026-05-04 03:50 46.42110 -122.30961 17428 ft 332 kts 179°
2026-05-04 03:50 46.39786 -122.30960 16922 ft 336 kts 179°
2026-05-04 03:51 46.37439 -122.30960 16418 ft 339 kts 179°
2026-05-04 03:51 46.35073 -122.30960 15921 ft 341 kts 179°
2026-05-04 03:51 46.32693 -122.30960 15439 ft 343 kts 179°
2026-05-04 03:51 46.30296 -122.30960 14952 ft 345 kts 179°
2026-05-04 03:52 46.27891 -122.30960 14481 ft 346 kts 179°
2026-05-04 03:52 46.25487 -122.31101 13997 ft 348 kts 189°
2026-05-04 03:52 46.23193 -122.32213 13519 ft 348 kts 201°
2026-05-04 03:52 46.20949 -122.33529 13000 ft 348 kts 201°
2026-05-04 03:53 46.18731 -122.34813 12490 ft 348 kts 201°
2026-05-04 03:53 46.16480 -122.36094 11993 ft 348 kts 201°
2026-05-04 03:53 46.14226 -122.37360 11474 ft 347 kts 201°
2026-05-04 03:53 46.11946 -122.38630 10640 ft 356 kts 201°
2026-05-04 03:54 46.09610 -122.39928 9873 ft 363 kts 202°
2026-05-04 03:54 46.07280 -122.41208 9651 ft 351 kts 201°
2026-05-04 03:54 46.05054 -122.42407 9523 ft 331 kts 201°
2026-05-04 03:54 46.02961 -122.43529 9359 ft 311 kts 201°
2026-05-04 03:55 46.00995 -122.44585 9224 ft 293 kts 201°
2026-05-04 03:55 45.99162 -122.45571 9105 ft 277 kts 201°
2026-05-04 03:55 45.97404 -122.46517 8989 ft 262 kts 201°
2026-05-04 03:55 45.95740 -122.47411 8888 ft 248 kts 201°
2026-05-04 03:56 45.94148 -122.48266 8633 ft 242 kts 201°
2026-05-04 03:56 45.92517 -122.48739 8241 ft 242 kts 174°
2026-05-04 03:56 45.90871 -122.48331 7911 ft 239 kts 169°
2026-05-04 03:56 45.89235 -122.47900 7529 ft 239 kts 170°
2026-05-04 03:57 45.87599 -122.47480 7190 ft 238 kts 170°
2026-05-04 03:57 45.85977 -122.47070 6848 ft 237 kts 170°
2026-05-04 03:57 45.84354 -122.46663 6494 ft 237 kts 170°
2026-05-04 03:57 45.82771 -122.46268 6302 ft 228 kts 170°
2026-05-04 03:58 45.79760 -122.45518 6006 ft 216 kts 170°
2026-05-04 03:58 45.78266 -122.45146 5975 ft 219 kts 170°
2026-05-04 03:58 45.76779 -122.44777 5949 ft 215 kts 170°
2026-05-04 03:59 45.75281 -122.44405 5974 ft 228 kts 170°
2026-05-04 03:59 45.73645 -122.43999 5976 ft 245 kts 170°
2026-05-04 03:59 45.71953 -122.43579 5955 ft 247 kts 170°
2026-05-04 03:59 45.70265 -122.43160 5928 ft 246 kts 170°
2026-05-04 04:00 45.68578 -122.42742 5917 ft 246 kts 170°
2026-05-04 04:00 45.66919 -122.42331 5921 ft 245 kts 170°
2026-05-04 04:00 45.65243 -122.41916 5923 ft 245 kts 170°
2026-05-04 04:00 45.63568 -122.41502 5922 ft 245 kts 170°
2026-05-04 04:01 45.61889 -122.41087 5929 ft 245 kts 170°
2026-05-04 04:01 45.60209 -122.40672 5932 ft 245 kts 170°
2026-05-04 04:01 45.58521 -122.40262 5922 ft 247 kts 169°
2026-05-04 04:01 45.56823 -122.39863 5947 ft 248 kts 170°
2026-05-04 04:02 45.55118 -122.39465 5954 ft 248 kts 170°
2026-05-04 04:02 45.53409 -122.39066 5954 ft 249 kts 170°
2026-05-04 04:02 45.51716 -122.38674 5952 ft 250 kts 170°
2026-05-04 04:02 45.50087 -122.37868 5937 ft 249 kts 144°
2026-05-04 04:03 45.48969 -122.36053 5950 ft 245 kts 113°
2026-05-04 04:03 45.48653 -122.33699 5882 ft 244 kts 83°
2026-05-04 04:03 45.49221 -122.31468 5785 ft 241 kts 52°
2026-05-04 04:03 45.50505 -122.30001 5702 ft 239 kts 21°
2026-05-04 04:04 45.52139 -122.29709 5642 ft 241 kts 351°
2026-05-04 04:04 45.53659 -122.30678 5555 ft 244 kts 321°
2026-05-04 04:04 45.54750 -122.32651 4768 ft 272 kts 294°
2026-05-04 04:04 45.55151 -122.35302 4329 ft 270 kts 276°
2026-05-04 04:05 45.55320 -122.37914 3740 ft 273 kts 277°
2026-05-04 04:05 45.55526 -122.40618 2993 ft 275 kts 279°
2026-05-04 04:05 45.55799 -122.43264 2443 ft 265 kts 280°
2026-05-04 04:05 45.56028 -122.45819 1758 ft 260 kts 277°
2026-05-04 04:06 45.56168 -122.48336 1214 ft 245 kts 276°
2026-05-04 04:06 45.56351 -122.50623 903 ft 208 kts 282°
2026-05-04 04:06 45.56785 -122.52364 712 ft 172 kts 294°
2026-05-04 04:06 45.57248 -122.53824 426 ft 150 kts 296°
2026-05-04 04:07 45.57701 -122.55033 244 ft 132 kts 300°
2026-05-04 04:07 45.58144 -122.56122 113 ft 125 kts 301°
2026-05-04 04:07 45.58541 -122.57154 47 ft 107 kts 298°
2026-05-04 04:07 45.58856 -122.57956 29 ft 78 kts 299°
2026-05-04 04:08 45.59025 -122.58501 31 ft 40 kts 281°
2026-05-04 04:08 45.59028 -122.58563 31 ft 0 kts 268°
2026-05-04 04:08 45.59028 -122.58558 31 ft 0 kts 268°
2026-05-04 04:09 45.59027 -122.58621 30 ft 8 kts 271°
2026-05-04 04:09 45.59027 -122.58624 30 ft 0 kts 271°
2026-05-04 04:09 45.59028 -122.58680 30 ft 10 kts 271°
2026-05-04 04:10 45.59029 -122.58785 31 ft 10 kts 271°
2026-05-04 04:10 45.59037 -122.58951 30 ft 21 kts 287°
2026-05-04 04:10 45.59107 -122.59129 30 ft 20 kts 311°
2026-05-04 04:10 45.59172 -122.59302 30 ft 20 kts 298°
2026-05-04 04:11 45.59236 -122.59471 29 ft 19 kts 301°
2026-05-04 04:11 45.59303 -122.59631 29 ft 18 kts 293°
2026-05-04 04:11 45.59274 -122.59792 28 ft 18 kts 215°
2026-05-04 04:11 45.59189 -122.59861 28 ft 2 kts 205°
2026-05-04 04:12 45.59172 -122.59867 28 ft 8 kts 187°
2026-05-04 04:12 45.59090 -122.59796 28 ft 15 kts 116°
2026-05-04 04:12 45.59034 -122.59771 28 ft 7 kts 207°
2026-05-04 04:12 45.59007 -122.59791 28 ft 2 kts 208°
2026-05-04 04:13 45.59002 -122.59796 28 ft 1 kts 208°
2026-05-04 04:13 45.59001 -122.59796 28 ft 0 kts 208°
2026-05-04 04:13 45.59000 -122.59797 28 ft 0 kts 208°